Wind_Speed
6 6 5 5 4 4 5 5 6 7 8 9 10 11 12 14 15 16 17 17 17 17 17 16 16 16 15 14 13 12 12 12 12 14 15 17 19 21 22 22 23 25 26
6 6 5 5 4 4 5 5 6 7 8 9 10 11 13 14 15 17 17 18 17 17 17 17 16 16 15 14 12 11 10 10 11 12 13 15 17 19 22 23 23 23 25
5 5 5 4 5 5 5 5 6 7 8 9 10 11 13 14 15 16 17 18 18 17 17 17 16 16 15 14 12 10 9 9 9 11 12 14 16 17 19 21 22 23 24
5 5 4 4 5 5 5 6 6 7 8 9 10 12 13 14 15 16 17 18 18 17 17 17 16 16 15 14 12 10 9 8 8 10 11 13 14 16 18 20 21 22 23
5 4 4 4 4 5 5 6 6 7 8 9 10 12 13 14 15 16 17 17 17 17 17 17 16 15 15 14 12 11 9 8 8 9 10 11 13 15 17 19 21 21 22
4 4 4 4 5 5 5 6 6 7 8 9 10 12 13 14 15 15 16 17 17 17 17 17 16 16 15 14 13 11 9 7 6 7 9 10 12 14 16 18 20 20 21
5 4 5 5 6 6 6 6 7 7 8 9 10 12 13 14 15 15 16 16 16 17 17 17 17 16 15 14 13 11 9 7 6 6 8 9 11 13 15 16 19 20 20
6 6 6 6 7 7 6 7 7 8 8 9 10 12 13 14 14 15 15 15 15 16 16 16 16 16 15 14 13 11 10 7 5 5 7 8 9 11 13 15 17 19 19
6 6 7 7 7 7 7 7 8 8 9 10 11 12 13 13 14 14 15 15 15 15 16 16 16 15 15 14 13 12 10 7 5 4 5 7 8 10 11 13 15 17 18
5 7 8 7 8 8 8 9 9 9 10 10 11 12 13 13 14 14 14 14 14 14 15 15 16 15 15 14 13 12 10 8 6 4 4 6 7 8 10 11 13 16 17
6 7 7 8 9 9 9 10 10 10 10 11 11 12 13 13 13 13 14 14 14 14 14 15 15 15 14 14 13 11 10 8 7 5 4 5 6 8 9 10 12 14 15
7 8 9 10 10 10 11 11 11 11 11 11 12 12 13 13 13 13 13 14 14 14 14 14 14 14 14 13 13 11 10 8 7 5 4 3 5 7 8 9 11 13 14
9 10 10 11 11 12 12 12 12 12 12 12 12 13 13 14 14 14 14 14 14 14 14 14 14 14 13 13 12 11 10 9 7 6 4 3 4 6 7 8 10 12 14
11 12 12 12 13 13 13 13 13 13 13 14 14 14 14 15 14 14 14 14 14 14 14 14 14 13 13 12 12 11 9 8 7 6 5 5 4 6 7 8 9 11 13
13 14 14 14 14 15 15 15 14 14 15 15 15 15 15 16 16 15 15 15 15 15 14 14 14 13 13 12 11 10 10 9 8 7 6 6 6 6 7 8 9 11 13
14 15 15 16 16 16 16 16 16 16 17 17 17 17 17 17 17 17 16 16 16 16 15 15 14 14 13 12 12 11 10 9 9 8 7 7 7 7 8 8 9 11 12
16 16 17 17 18 18 18 18 18 18 19 19 19 19 19 19 18 18 18 18 18 17 17 16 15 15 14 13 12 12 11 11 10 9 8 8 8 9 9 9 10 12 13
18 18 19 20 20 20 20 20 20 21 21 21 21 22 22 21 21 20 20 20 20 19 19 18 17 16 15 15 14 13 13 12 11 11 10 9 9 9 10 10 11 12 13
21 21 22 22 23 23 23 23 23 23 23 23 23 23 23 23 23 23 22 22 21 21 21 20 19 18 18 17 16 15 15 14 13 13 12 11 11 11 11 11 12 13 14
24 24 25 25 25 25 26 25 25 25 25 26 25 26 26 26 26 25 25 24 24 23 23 22 21 21 20 19 19 18 17 16 15 14 14 14 13 13 13 13 13 14 15
26 27 27 28 28 28 28 28 28 28 28 28 28 28 29 29 28 28 27 27 27 26 25 25 24 23 22 22 21 20 20 19 18 17 17 16 16 15 15 15 15 15 16
29 29 30 30 30 31 31 31 32 32 31 31 31 31 31 31 31 31 30 30 30 29 28 27 27 26 25 24 24 23 22 21 20 19 19 18 18 18 17 17 17 17 17
32 33 33 33 33 33 34 35 35 35 34 34 33 33 32 32 33 33 33 33 32 32 31 30 29 28 28 28 27 26 25 24 23 22 21 20 20 20 19 19 18 18 19
35 36 36 36 36 36 36 37 37 37 37 36 36 35 35 35 35 35 36 35 35 34 34 33 32 31 31 30 30 29 28 27 26 24 23 23 22 22 22 21 21 20 20
39 39 39 39 39 39 39 39 40 40 40 39 39 38 38 39 38 38 38 38 38 37 37 36 35 34 33 32 32 31 30 29 28 27 26 26 25 25 24 24 23 23 22
42 42 42 42 43 42 42 42 43 43 43 43 42 42 42 42 42 41 41 41 40 40 40 39 38 37 36 36 35 34 33 32 31 30 29 28 27 26 26 25 25 24 24
Wind_Direction
214 217 228 240 259 281 296 300 312 323 330 335 340 343 344 346 346 346 345 343 341 341 340 340 338 335 330 322 313 300 289 274 261 249 243 235 229 227 224 220 220 219 217
219 225 235 244 261 282 296 300 308 319 327 334 338 341 343 345 346 346 346 346 344 343 342 340 340 338 335 329 320 308 295 279 263 250 242 236 226 223 225 223 223 220 218
224 230 237 252 268 284 297 305 314 321 327 334 338 340 343 345 346 347 347 348 346 345 344 343 342 341 340 335 328 316 303 286 266 251 242 235 228 223 223 222 222 221 219
227 232 242 258 270 281 294 306 315 320 328 334 339 342 344 345 347 347 347 347 347 346 346 345 344 344 343 340 335 326 309 292 270 256 244 235 231 224 218 218 219 219 218
225 232 247 260 273 281 292 305 311 318 327 335 339 343 344 345 346 347 348 348 348 347 347 347 347 346 346 344 341 335 319 297 276 259 246 238 232 224 220 218 217 218 218
233 241 252 263 279 283 292 302 306 315 325 333 338 340 342 343 345 347 347 348 348 349 349 349 350 349 349 348 345 341 333 310 282 262 247 238 233 226 221 219 217 218 217
243 253 262 270 279 285 291 299 306 314 322 330 334 337 340 342 344 345 346 347 348 350 351 351 351 351 351 350 348 345 339 326 289 263 249 239 232 229 223 220 218 219 218
250 260 270 276 280 285 292 299 305 311 318 325 330 333 337 340 342 343 344 345 347 349 350 351 352 352 353 353 352 350 345 335 310 275 256 241 234 228 226 225 224 222 219
259 265 272 282 286 287 293 297 302 307 313 319 325 329 333 335 339 341 342 344 346 347 349 352 353 353 353 355 355 355 352 345 329 296 263 242 235 230 229 230 227 225 224
274 275 278 285 288 290 292 294 298 303 307 312 319 324 328 332 335 337 339 341 344 345 347 350 352 353 353 353 355 356 354 352 343 317 277 248 238 234 233 230 226 225 225
295 292 291 291 291 289 290 292 295 300 305 309 313 318 323 327 331 333 336 337 340 342 344 347 350 351 352 352 353 353 355 355 351 336 301 260 238 237 236 232 229 226 226
298 299 299 297 294 290 289 291 293 296 301 306 309 312 316 321 325 328 332 334 335 337 340 344 347 348 350 351 352 352 352 351 350 347 326 279 248 244 241 236 231 227 227
292 296 297 296 295 293 291 290 289 292 296 300 303 306 310 314 317 320 324 327 330 332 335 338 342 345 346 348 348 348 347 347 345 340 327 294 259 247 245 240 234 231 231
288 289 292 294 293 293 293 291 289 289 292 296 300 303 305 307 309 312 315 319 322 325 328 331 335 338 342 343 345 346 344 341 340 335 323 297 271 257 252 246 239 236 235
286 287 288 290 290 290 290 290 290 291 292 293 296 300 302 302 302 304 307 311 313 316 319 322 326 329 332 336 338 339 338 335 329 322 315 303 283 269 260 251 246 243 241
286 287 288 290 290 289 288 288 288 290 291 292 294 295 297 298 298 298 300 302 305 307 311 313 316 319 321 323 326 328 326 325 322 317 307 299 289 275 266 259 253 250 249
287 288 289 289 289 288 288 288 287 288 289 290 291 293 293 294 294 294 295 296 297 299 303 305 307 309 310 312 314 316 316 315 313 310 304 296 288 280 274 266 257 254 252
291 292 290 290 289 288 288 287 288 288 288 289 289 289 290 291 291 290 290 290 291 293 295 298 299 301 302 302 303 304 305 304 304 302 300 296 290 283 276 269 264 260 256
292 292 292 290 289 289 288 287 286 287 288 288 288 288 288 288 288 288 287 286 287 288 289 291 293 293 295 295 294 295 297 297 294 293 292 292 290 286 282 275 268 262 260
291 291 292 290 288 288 288 287 286 286 286 287 287 286 286 286 286 285 285 283 283 283 284 285 286 287 289 289 288 288 289 290 288 286 285 285 284 283 282 278 273 267 263
290 290 290 291 289 288 287 287 286 285 286 286 286 285 284 284 283 283 282 282 280 280 280 281 281 282 284 284 284 284 284 284 283 282 280 279 279 278 277 277 273 269 266
290 290 290 290 290 288 286 285 285 285 285 285 284 283 283 282 281 280 280 279 279 278 278 278 278 278 279 280 280 280 279 279 278 278 276 276 275 275 275 275 273 270 266
290 291 291 290 289 288 287 285 284 284 283 283 283 283 282 281 281 280 279 278 277 277 277 276 276 275 275 275 276 276 276 275 274 273 273 272 272 272 272 272 272 271 269
291 290 290 290 290 289 287 285 284 283 283 282 281 281 280 280 280 279 278 278 277 275 274 274 274 273 272 272 272 273 273 273 273 271 270 269 269 270 271 271 271 271 270
290 290 290 291 290 289 287 284 283 282 282 282 280 279 279 278 277 277 276 276 275 274 272 271 271 271 270 270 269 269 270 271 271 270 269 268 268 268 269 269 270 270 269
290 290 291 291 291 289 286 284 283 282 282 281 280 279 278 276 275 275 274 274 272 271 270 269 269 268 267 266 266 266 267 268 268 268 268 268 268 267 268 268 268 269 269
Height
5842 5843 5843 5844 5844 5844 5843 5842 5842 5840 5839 5838 5836 5834 5831 5829 5826 5823 5820 5816 5812 5809 5806 5802 5799 5795 5792 5789 5787 5785 5784 5784 5784 5785 5786 5788 5791 5795 5799 5802 5806 5810 5814
5841 5842 5842 5842 5842 5842 5841 5841 5840 5839 5838 5836 5834 5832 5830 5827 5825 5821 5818 5814 5811 5807 5804 5800 5797 5793 5790 5787 5785 5783 5782 5781 5781 5782 5783 5785 5788 5791 5794 5798 5802 5806 5810
5840 5840 5840 5841 5841 5840 5840 5839 5838 5837 5836 5834 5832 5831 5828 5826 5823 5820 5817 5813 5809 5806 5802 5799 5795 5792 5788 5785 5783 5781 5779 5779 5779 5779 5781 5782 5784 5787 5791 5794 5798 5801 5805
5838 5839 5839 5839 5839 5839 5838 5837 5836 5835 5834 5833 5831 5829 5827 5824 5821 5818 5815 5812 5808 5805 5801 5797 5794 5790 5787 5784 5781 5779 5778 5777 5776 5777 5778 5780 5781 5784 5787 5791 5794 5797 5801
5837 5837 5837 5837 5837 5837 5836 5836 5835 5834 5833 5831 5829 5827 5825 5823 5820 5817 5814 5811 5807 5803 5800 5796 5792 5789 5786 5783 5780 5777 5776 5775 5774 5775 5775 5777 5779 5781 5784 5787 5791 5794 5797
5836 5836 5836 5836 5836 5835 5835 5834 5833 5832 5831 5829 5828 5826 5824 5821 5819 5816 5813 5809 5806 5802 5799 5795 5792 5788 5785 5782 5779 5776 5774 5773 5772 5772 5773 5774 5776 5778 5781 5784 5787 5790 5794
5834 5834 5834 5834 5834 5833 5833 5832 5831 5830 5829 5828 5826 5824 5822 5820 5817 5815 5812 5808 5805 5802 5798 5795 5791 5787 5784 5781 5778 5775 5773 5771 5771 5771 5771 5772 5774 5776 5779 5781 5784 5787 5790
5833 5833 5832 5832 5832 5831 5831 5830 5829 5829 5827 5826 5825 5823 5821 5819 5816 5813 5810 5807 5804 5801 5797 5794 5790 5787 5784 5780 5777 5775 5772 5771 5770 5769 5770 5771 5772 5774 5776 5778 5781 5784 5787
5831 5831 5831 5830 5830 5829 5829 5828 5828 5827 5826 5824 5823 5821 5819 5817 5815 5812 5809 5806 5803 5800 5797 5794 5790 5787 5783 5780 5777 5774 5772 5770 5769 5769 5769 5769 5771 5772 5774 5776 5778 5782 5784
5829 5829 5828 5828 5828 5828 5827 5826 5826 5825 5824 5823 5821 5819 5817 5815 5813 5811 5808 5805 5802 5799 5796 5793 5790 5786 5783 5780 5777 5774 5772 5770 5769 5768 5768 5768 5769 5770 5772 5774 5776 5778 5781
5828 5827 5826 5826 5826 5826 5825 5824 5824 5823 5822 5820 5819 5818 5816 5814 5811 5809 5807 5804 5801 5799 5796 5793 5789 5786 5783 5780 5777 5774 5772 5770 5769 5768 5767 5768 5768 5769 5770 5772 5774 5776 5778
5826 5825 5825 5824 5824 5823 5822 5822 5821 5820 5819 5818 5817 5815 5814 5812 5809 5807 5805 5803 5800 5797 5795 5792 5789 5786 5783 5780 5777 5774 5772 5771 5769 5768 5767 5767 5767 5768 5769 5770 5771 5773 5776
5824 5823 5822 5821 5821 5820 5819 5819 5818 5817 5816 5815 5814 5812 5811 5809 5807 5805 5803 5801 5799 5796 5794 5791 5788 5785 5782 5780 5777 5774 5772 5771 5769 5768 5767 5766 5766 5767 5767 5768 5769 5771 5773
5821 5821 5820 5818 5818 5817 5816 5816 5815 5814 5813 5812 5811 5809 5808 5806 5805 5803 5801 5799 5797 5794 5792 5790 5787 5784 5782 5779 5776 5774 5772 5770 5769 5767 5766 5766 5765 5765 5766 5766 5767 5769 5770
5818 5817 5816 5815 5814 5813 5813 5812 5811 5810 5810 5808 5807 5806 5804 5803 5802 5800 5798 5796 5794 5792 5790 5788 5785 5783 5780 5778 5775 5773 5771 5770 5768 5767 5766 5765 5764 5764 5764 5764 5765 5766 5767
5814 5814 5813 5812 5811 5810 5809 5808 5807 5806 5805 5804 5803 5802 5800 5799 5798 5796 5795 5793 5791 5789 5787 5785 5783 5781 5779 5776 5774 5772 5770 5768 5767 5766 5764 5763 5763 5762 5762 5762 5762 5763 5764
5810 5809 5808 5807 5806 5805 5804 5803 5803 5802 5801 5800 5799 5797 5796 5795 5793 5792 5790 5789 5787 5786 5784 5782 5780 5778 5776 5774 5772 5770 5768 5767 5765 5764 5763 5762 5761 5760 5760 5759 5760 5760 5760
5806 5805 5803 5802 5801 5800 5799 5798 5797 5796 5795 5794 5793 5792 5791 5789 5788 5787 5785 5784 5783 5781 5780 5778 5776 5775 5773 5771 5769 5767 5766 5764 5763 5761 5760 5759 5758 5757 5757 5757 5756 5756 5757
5801 5799 5798 5797 5795 5794 5793 5792 5791 5790 5789 5788 5787 5786 5784 5783 5782 5781 5780 5778 5777 5776 5774 5773 5772 5770 5769 5767 5765 5764 5762 5761 5759 5758 5757 5756 5755 5754 5753 5753 5753 5753 5753
5794 5793 5791 5790 5789 5787 5786 5785 5784 5783 5782 5780 5779 5778 5777 5776 5775 5774 5773 5772 5770 5769 5768 5767 5766 5765 5763 5762 5761 5759 5758 5757 5755 5754 5753 5752 5751 5751 5750 5749 5749 5748 5748
5788 5786 5784 5783 5781 5779 5778 5777 5776 5775 5773 5772 5771 5770 5769 5768 5766 5766 5765 5764 5763 5762 5761 5760 5760 5759 5757 5756 5755 5754 5753 5752 5751 5750 5749 5748 5747 5746 5745 5745 5744 5744 5744
5780 5778 5776 5775 5773 5771 5769 5768 5767 5765 5764 5763 5761 5760 5759 5758 5757 5756 5756 5755 5754 5754 5753 5753 5752 5751 5750 5749 5748 5747 5746 5745 5745 5744 5743 5742 5742 5741 5740 5739 5739 5738 5738
5771 5769 5767 5765 5763 5761 5760 5758 5757 5755 5754 5753 5751 5750 5749 5748 5747 5746 5745 5745 5744 5744 5744 5743 5743 5743 5742 5741 5740 5740 5739 5738 5738 5737 5737 5736 5736 5735 5734 5734 5733 5733 5732
5761 5759 5757 5755 5753 5751 5748 5746 5745 5744 5743 5742 5741 5740 5739 5738 5736 5735 5735 5734 5733 5733 5733 5733 5733 5733 5732 5732 5731 5731 5731 5730 5730 5730 5729 5729 5729 5728 5728 5727 5727 5726 5726
5750 5748 5745 5743 5741 5739 5736 5734 5732 5731 5730 5729 5728 5728 5727 5726 5725 5724 5723 5722 5722 5721 5721 5721 5721 5721 5722 5722 5721 5721 5721 5721 5721 5721 5721 5721 5721 5721 5720 5720 5720 5719 5719
5737 5735 5733 5730 5728 5725 5723 5721 5719 5718 5717 5716 5715 5714 5713 5712 5711 5710 5710 5709 5709 5708 5708 5708 5708 5709 5710 5710 5709 5710 5710 5710 5711 5711 5712 5712 5712 5712 5712 5712 5712 5712 5712